Flag for Bangladesh Weather past 2 weeks in Jessore, Bangladesh

Now
36 °F

Partly cloudy.


Feels Like: 25 °F
Forecast: 61 / 78 °F
Wind: 17 mph from Northeast

Location: Kunming Airport

Current Time: Dec 21, 2014 at 3:50:58 AM

Latest Report: Dec 21, 2014 at 3:00 AM


Visibility: 5 mi

Pressure: 30.24 "Hg

Humidity: 93%

Dew point: 34 °F

Location of JessoreLocation

Historic Weather in Jessore — Graph

°F

Jessore temperature yesterday

Maximum temperature yesterday: 55 °F (at 2:00 PM)
Minimum temperature yesterday: 32 °F (at 12:00 AM)
Average temperature yesterday: 42 °F

Past Weeks' High & Low Weather Summary

 TemperatureHumidityPressure
High68 °F (Dec 15, 2:00 PM)100% (Dec 6, 2:00 AM)30.54 "Hg (Dec 6, 2:00 AM)
Low30 °F (Dec 17, 2:00 AM)24% (Dec 14, 1:00 PM)29.98 "Hg (Dec 6, 1:00 PM)
Average45 °F81%30.24 "Hg
* Reported Dec 6 2:00 AM — Dec 21 2:00 AM, Jessore, Weather by CustomWeather, © 2014

Note: Actual official high and low records may vary slightly from our data, if they occured in-between our weather recording intervals... More about our weather records

Advertising

Jessore weather history for previous 24 hours

 ConditionsComfort  
Time TempWeatherWind HumidityBarometerVisibility
2:00 AM
Dec 21
32 °FClear.8 mph100%30.24 "Hg5 mi
1:00 AM32 °FClear.6 mph100%30.21 "Hg5 mi
12:00 AM36 °FClear.1 mph93%30.18 "Hg10 mi
11:00 PM
Dec 20
37 °FClear.3 mph93%30.18 "Hg10 mi
10:00 PM41 °FClear.10 mph81%30.18 "Hg10 mi
9:00 PM41 °FClear.6 mph87%30.15 "Hg10 mi
8:00 PM43 °FClear.6 mph81%30.12 "Hg10 mi
7:00 PM45 °FClear.15 mph61%30.12 "Hg10 mi
6:00 PM45 °FClear.17 mph61%30.09 "Hg10 mi
5:00 PM50 °FClear.13 mph47%30.09 "Hg10 mi
4:00 PM54 °FSunny.17 mph38%30.07 "Hg10 mi
3:00 PM55 °FSunny.20 mph36%30.07 "Hg10 mi
2:00 PM55 °FSunny.17 mph38%30.07 "Hg10 mi
1:00 PM54 °FPassing clouds.17 mph44%30.09 "HgN/A
12:00 PM52 °FSunny.15 mph50%30.12 "Hg10 mi
11:00 AM50 °FPassing clouds.13 mph58%30.18 "HgN/A
10:00 AM46 °FFog.15 mph71%30.21 "Hg3 mi
9:00 AM41 °FFog.13 mph100%30.24 "Hg1 mi
8:00 AM34 °FFog.13 mph100%30.24 "Hg0 mi
7:00 AM34 °FFog.10 mph100%30.24 "Hg0 mi
6:00 AM34 °FFog.10 mph100%30.24 "Hg0 mi
5:00 AM34 °FFog.8 mph100%30.21 "Hg0 mi
4:00 AM32 °FFog.8 mph100%30.21 "Hg1 mi
3:00 AM34 °FFog.6 mph100%30.21 "Hg2 mi
Weather by CustomWeather, © 2014

See weather overviewHow to use our weather pages